Weather History for KBLI - January, 2012

Change the Weather History Date:

Sunday, January 29, 2012

  Actual Average Record
Temperature  
Mean Temperature 44 °F 40 °F  
Max Temperature 48 °F 47 °F 62 °F (1992)
Min Temperature 41 °F 33 °F -2 °F (1950)
Degree Days  
Heating Degree Days 20 25  
Month to date heating degree days 748  
Cooling Degree Days 0 0  
Month to date cooling degree days 0  
Year to date cooling degree days 0  
Moisture  
Dew Point 44 °F    
Average Humidity 88    
Maximum Humidity 100    
Minimum Humidity 73    
Precipitation  
Precipitation 0.70 in 0.14 in 0.82 in (1960)
Month to date precipitation 4.39  
Year to date precipitation 4.39  
Sea Level Pressure  
Sea Level Pressure 29.87 in    
Wind  
Wind Speed 10 mph (SSE)    
Max Wind Speed 15 mph    
Max Gust Speed 25 mph    
Visibility 9 miles    
Events Rain    
T = Trace of Precipitation, MM = Missing Value Source: NWS Daily Summary

Daily Weather History Graph

Daily Weather History Graph

Search for Another Location

Airport or City:

Trip Planner

Search our weather history database for the weather conditions in past years. The results will help you decide how hot, cold, wet, or windy it might be!

Date:

Astronomy

Jan. 29, 2012 Rise Set
Actual Time 7:44 AM PST 5:02 PM PST
Civil Twilight 7:10 AM PST 5:36 PM PST
Nautical Twilight 6:32 AM PST 6:15 PM PST
Astronomical Twilight 5:55 AM PST 6:52 PM PST
Moon 9:59 AM PST (1/29) No Moon Set
Length of Visible Light 10h 26m
Length of Day
9h 18m
Waxing Crescent, 37% of the Moon is Illuminated
Jan 29
Waxing Crescent
Jan 30
First Quarter
Feb 7
Full
Feb 14
Last Quarter
Feb 21
New

Hourly Weather History & Observations

Time (PST) Temp. Windchill Dew Point Humidity Pressure Visibility Wind Dir Wind Speed Gust Speed Precip Events Conditions
12:53 AM 41.0 °F 35.8 °F 37.0 °F 86% 30.00 in 10.0 mi NNW 8.1 mph - 0.00 in Rain Light Rain
1:53 AM 46.9 °F - 39.0 °F 74% 30.01 in 8.0 mi South 6.9 mph - 0.12 in Rain Light Rain
2:53 AM 46.0 °F 41.9 °F 37.9 °F 73% 29.97 in 10.0 mi SSE 8.1 mph 21.9 mph 0.06 in   Overcast
3:20 AM 46.4 °F 42.4 °F 42.8 °F 87% 29.95 in 10.0 mi SSE 8.1 mph - N/A   Overcast
3:28 AM 46.4 °F 40.4 °F 39.2 °F 76% 29.94 in 10.0 mi SSE 13.8 mph 20.7 mph N/A   Overcast
3:53 AM 48.0 °F - 39.9 °F 74% 29.95 in 10.0 mi SSE 10.4 mph 23.0 mph N/A   Overcast
4:53 AM 48.0 °F - 41.0 °F 77% 29.96 in 10.0 mi SSE 10.4 mph - N/A   Overcast
5:53 AM 48.9 °F - 41.0 °F 74% 29.96 in 10.0 mi SSE 12.7 mph 23.0 mph N/A   Overcast
6:09 AM 48.2 °F - 41.0 °F 76% 29.92 in 10.0 mi SSE 12.7 mph - 0.00 in Rain Light Rain
6:43 AM 48.2 °F - 42.8 °F 82% 29.92 in 10.0 mi SSE 13.8 mph - 0.00 in   Overcast
6:53 AM 48.9 °F - 42.1 °F 77% 29.94 in 10.0 mi SSE 11.5 mph - 0.00 in   Overcast
7:53 AM 48.0 °F - 43.0 °F 83% 29.93 in 10.0 mi SSE 15.0 mph 20.7 mph 0.02 in Rain Light Rain
8:53 AM 48.0 °F - 44.1 °F 86% 29.91 in 5.0 mi SSE 15.0 mph 20.7 mph 0.05 in Rain Light Rain
9:53 AM 48.9 °F - 46.9 °F 93% 29.91 in 10.0 mi South 8.1 mph - 0.04 in Rain Light Rain
10:50 AM 46.4 °F 42.4 °F 46.4 °F 100% 29.89 in 5.0 mi South 8.1 mph 20.7 mph 0.02 in Rain Light Rain
10:53 AM 46.9 °F - 46.9 °F 100% 29.91 in 6.0 mi South 10.4 mph 18.4 mph 0.03 in Rain Light Rain
11:26 AM 48.2 °F - 44.6 °F 87% 29.87 in 5.0 mi South 13.8 mph 25.3 mph 0.02 in Rain Light Rain
11:35 AM 46.4 °F 41.1 °F 44.6 °F 93% 29.87 in 5.0 mi South 11.5 mph 23.0 mph 0.03 in Rain Light Rain
11:53 AM 48.0 °F - 46.0 °F 93% 29.89 in 5.0 mi South 13.8 mph 23.0 mph 0.05 in Rain Light Rain
12:53 PM 48.0 °F - 46.9 °F 96% 29.87 in 7.0 mi South 11.5 mph 19.6 mph 0.04 in Rain Light Rain
1:00 PM 48.2 °F - 46.4 °F 93% 29.84 in 6.0 mi SSE 13.8 mph 19.6 mph 0.02 in Rain Light Rain
1:53 PM 48.0 °F - 45.0 °F 89% 29.84 in 9.0 mi SSE 11.5 mph - 0.08 in Rain Light Rain
2:00 PM 48.2 °F - 44.6 °F 87% 29.82 in 9.0 mi SSE 11.5 mph - 0.01 in Rain Light Rain
2:53 PM 48.9 °F - 46.0 °F 90% 29.82 in 5.0 mi SSE 10.4 mph - 0.08 in Rain Light Rain
3:53 PM 48.9 °F - 46.0 °F 90% 29.81 in 9.0 mi SSE 9.2 mph - 0.05 in Rain Light Rain
4:53 PM 48.9 °F - 45.0 °F 86% 29.80 in 10.0 mi South 9.2 mph 21.9 mph 0.00 in   Overcast
5:53 PM 48.0 °F - 46.0 °F 93% 29.79 in 10.0 mi South 5.8 mph - 0.00 in   Overcast
6:53 PM 46.9 °F - 45.0 °F 93% 29.78 in 10.0 mi South 5.8 mph - 0.01 in Rain Light Rain
7:48 PM 46.4 °F 45.2 °F 44.6 °F 93% 29.76 in 9.0 mi South 3.5 mph - 0.03 in Rain Light Rain
7:53 PM 46.9 °F - 45.0 °F 93% 29.78 in 8.0 mi South 3.5 mph - 0.04 in Rain Light Rain
8:16 PM 46.4 °F 43.5 °F 44.6 °F 93% 29.76 in 10.0 mi South 5.8 mph - 0.00 in   Overcast
8:53 PM 46.9 °F - 44.1 °F 90% 29.78 in 8.0 mi SSE 9.2 mph - 0.02 in Rain Light Rain
9:53 PM 46.9 °F - 44.1 °F 90% 29.79 in 10.0 mi SSE 10.4 mph - 0.00 in   Overcast
10:44 PM 46.4 °F 43.5 °F 46.4 °F 100% 29.77 in 10.0 mi South 5.8 mph - 0.01 in   Overcast
10:53 PM 46.9 °F - 46.0 °F 97% 29.80 in 10.0 mi South 6.9 mph - 0.01 in   Overcast
11:17 PM 48.2 °F - 44.6 °F 87% 29.77 in 10.0 mi South 9.2 mph - N/A   Overcast
11:53 PM 48.0 °F - 45.0 °F 89% 29.81 in 10.0 mi South 9.2 mph - N/A   Overcast